Location: ?????
(55.8833°N, 37.6500°E)
Time: 21:27:17
(UTC+00:00)

MONITOR-E - Pass Details

Date: 27 February 2020
Orbit: 323 x 327 km, 97.0° (Epoch: 29 March)

Event Time Altitude Azimuth Distance (km) Brightness Sun altitude
Exits shadow 16:44:25 23° 164° (SSE) 791 5.4 -15.6°
Maximum altitude 16:45:59 88° 80° (E) 347 3.7 -15.8°
Drops below altitude 10° 16:48:44 10° 346° (NNW) 1,294 7.0 -16.2°
Sets 16:50:39 0° 347° (NNW) 2,137 8.2 -16.5°
